Weather History for KYNG - March, 2013

Change the Weather History Date:

Sunday, March 10, 2013

  Actual Average Record
Temperature  
Mean Temperature 56 °F 34 °F  
Max Temperature 68 °F 43 °F 69 °F (1973)
Min Temperature 44 °F 26 °F 1 °F (1996)
Degree Days  
Heating Degree Days 9 31  
Month to date heating degree days 319 321  
Since 1 July heating degree days 4761 4969  
Cooling Degree Days 0 0  
Month to date cooling degree days 0 0  
Year to date cooling degree days 0 0  
Growing Degree Days 5 (Base 50)    
Moisture  
Dew Point 28 °F    
Average Humidity 36    
Maximum Humidity 45    
Minimum Humidity 27    
Precipitation  
Precipitation T in 0.09 in 0.99 in (1983)
Month to date precipitation 0.16 0.86  
Year to date precipitation 4.46 5.56  
Snow  
Snow 0.00 in 0.40 in - ()
Month to date snowfall 3.9 4.3  
Since 1 July snowfall 64.3 53.1  
Snow Depth 0.00 in    
Sea Level Pressure  
Sea Level Pressure 30.05 in    
Wind  
Wind Speed 11 mph (SSE)    
Max Wind Speed 17 mph    
Max Gust Speed 24 mph    
Visibility 10 miles    
Events Rain    
T = Trace of Precipitation, MM = Missing Value Source: NWS Daily Summary

Daily Weather History Graph

Daily Weather History Graph

Search for Another Location

Airport or City:

Trip Planner

Search our weather history database for the weather conditions in past years. The results will help you decide how hot, cold, wet, or windy it might be!

Date:

Astronomy

Mar. 10, 2013 Rise Set
Actual Time 7:42 AM EDT 7:24 PM EDT
Civil Twilight 7:14 AM EDT 7:51 PM EDT
Nautical Twilight 6:42 AM EDT 8:23 PM EDT
Astronomical Twilight 6:10 AM EDT 8:55 PM EDT
Moon 6:41 AM EDT (3/10) 6:30 PM EDT (3/10)
Length of Visible Light 12h 36m
Length of Day
11h 41m
Waning Crescent, 2% of the Moon is Illuminated
Mar 10
Waning Crescent
Mar 11
New
Mar 19
First Quarter
Mar 27
Full
Apr 3
Last Quarter

Hourly Weather History & Observations

Time (EDT) Temp. Windchill Dew Point Humidity Pressure Visibility Wind Dir Wind Speed Gust Speed Precip Events Conditions
12:51 AM 45.0 °F 39.7 °F 23.0 °F 42% 30.15 in 10.0 mi SE 10.4 mph - N/A   Overcast
1:51 AM 45.0 °F 40.1 °F 23.0 °F 42% 30.13 in 10.0 mi SE 9.2 mph - N/A   Overcast
3:51 AM 45.0 °F 40.1 °F 21.9 °F 40% 30.11 in 10.0 mi SE 9.2 mph - N/A   Overcast
4:51 AM 45.0 °F 39.3 °F 23.0 °F 42% 30.09 in 10.0 mi SE 11.5 mph - N/A   Overcast
5:51 AM 45.0 °F 39.7 °F 23.0 °F 42% 30.09 in 10.0 mi SE 10.4 mph - N/A   Overcast
6:51 AM 46.0 °F 42.5 °F 23.0 °F 40% 30.10 in 10.0 mi SSE 6.9 mph - N/A   Mostly Cloudy
7:51 AM 46.0 °F 41.0 °F 23.0 °F 40% 30.11 in 10.0 mi SSE 10.4 mph - N/A   Mostly Cloudy
8:51 AM 48.9 °F - 24.1 °F 38% 30.12 in 10.0 mi South 12.7 mph - N/A   Mostly Cloudy
9:51 AM 46.9 °F - 27.0 °F 46% 30.12 in 10.0 mi South 9.2 mph - 0.00 in Rain Light Rain
10:51 AM 51.1 °F - 28.9 °F 43% 30.12 in 10.0 mi South 11.5 mph - 0.00 in   Mostly Cloudy
11:51 AM 54.0 °F - 30.0 °F 40% 30.10 in 10.0 mi South 13.8 mph - N/A   Mostly Cloudy
12:51 PM 60.1 °F - 30.9 °F 33% 30.07 in 10.0 mi South 11.5 mph 19.6 mph N/A   Mostly Cloudy
1:51 PM 64.0 °F - 34.0 °F 33% 30.05 in 10.0 mi South 13.8 mph 18.4 mph N/A   Mostly Cloudy
2:51 PM 64.9 °F - 34.0 °F 32% 30.01 in 10.0 mi South 10.4 mph 17.3 mph N/A   Mostly Cloudy
3:51 PM 66.0 °F - 34.0 °F 30% 29.99 in 10.0 mi South 12.7 mph 20.7 mph N/A   Overcast
4:51 PM 68.0 °F - 33.1 °F 27% 29.98 in 10.0 mi South 12.7 mph 19.6 mph N/A   Overcast
5:51 PM 66.9 °F - 32.0 °F 27% 29.99 in 10.0 mi SSW 11.5 mph 18.4 mph N/A   Mostly Cloudy
6:51 PM 64.9 °F - 32.0 °F 29% 29.98 in 10.0 mi SSE 8.1 mph - N/A   Mostly Cloudy
7:51 PM 63.0 °F - 32.0 °F 31% 29.99 in 10.0 mi SSE 6.9 mph - N/A   Mostly Cloudy
8:51 PM 62.1 °F - 32.0 °F 32% 29.96 in 10.0 mi SE 8.1 mph - N/A   Mostly Cloudy
9:51 PM 59.0 °F - 30.9 °F 35% 29.96 in 10.0 mi SE 12.7 mph - N/A   Mostly Cloudy
10:51 PM 57.9 °F - 30.0 °F 35% 29.97 in 10.0 mi SSE 8.1 mph 18.4 mph N/A   Overcast
11:51 PM 57.0 °F - 30.0 °F 36% 29.94 in 10.0 mi SE 13.8 mph - N/A   Overcast
12:51 AM 57.0 °F - 30.0 °F 36% 29.92 in 10.0 mi SE 12.7 mph - N/A   Overcast